Location: Newark
(52.0267°N, 0.2640°W)
Time: 04:11:24
(UTC+00:00)

X-37B - Visible Passes

Search period start: 26 February 2021 00:00
Search period end: 08 March 2021 00:00
Orbit: 383 x 391 km, 45.0° (Epoch: 10 February)

Date Brightness Start Highest point End Pass type
(mag) Time Alt. Az. Time Alt. Az. Time Alt. Az.
26 Feb 3.7 04:07:50 11° SE 04:07:50 11° SE 04:08:02 10° ESE visible
26 Feb 2.6 05:40:06 14° SW 05:41:29 18° SSW 05:43:42 10° SSE visible
27 Feb 2.7 04:44:21 18° SSE 04:44:21 18° SSE 04:45:49 10° SE visible
28 Feb 2.8 05:20:56 14° SSW 05:21:08 14° SSW 05:22:50 10° SSE visible
